APG328 RPVA-RPLL

Flight info

Callsign APG328
Flight time 1h 17m
Altitude 36000
Route MALAG4R MALAG W9 AKDAP AKDAP5P
Aircraft A320/M-SDE3FGHIRWY/LB1

Departure

Time 2026-04-17 07:19
Airport Daniel Z. Romualdez Airport (RPVA)

Arrival

Time 2026-04-17 08:36
Airport Ninoy Aquino International Airport (RPLL)
Time Latitude Longitude Altitude Speed Heading
2026-04-17 07:02 11.22640 125.02652 16 ft 0 kts 308°
2026-04-17 07:12 11.22650 125.02652 16 ft 3 kts
2026-04-17 07:12 11.22680 125.02665 16 ft 7 kts 23°
2026-04-17 07:13 11.22705 125.02676 16 ft 6 kts 25°
2026-04-17 07:13 11.22745 125.02709 17 ft 10 kts 53°
2026-04-17 07:13 11.22796 125.02776 15 ft 10 kts 16°
2026-04-17 07:13 11.22842 125.02780 14 ft 11 kts
2026-04-17 07:14 11.22933 125.02786 15 ft 16 kts
2026-04-17 07:14 11.23052 125.02795 15 ft 14 kts
2026-04-17 07:14 11.23157 125.02800 17 ft 16 kts
2026-04-17 07:14 11.23275 125.02809 14 ft 18 kts
2026-04-17 07:15 11.23383 125.02815 15 ft 13 kts
2026-04-17 07:15 11.23451 125.02820 16 ft 7 kts
2026-04-17 07:15 11.23491 125.02822 16 ft 5 kts
2026-04-17 07:15 11.23539 125.02825 18 ft 10 kts
2026-04-17 07:16 11.23612 125.02830 17 ft 11 kts
2026-04-17 07:16 11.23677 125.02806 17 ft 10 kts 338°
2026-04-17 07:16 11.23714 125.02822 17 ft 4 kts 82°
2026-04-17 07:16 11.23701 125.02836 17 ft 2 kts 151°
2026-04-17 07:17 11.23697 125.02835 17 ft 0 kts 178°
2026-04-17 07:18 11.23669 125.02834 17 ft 21 kts 182°
2026-04-17 07:18 11.23248 125.02807 14 ft 98 kts 184°
2026-04-17 07:18 11.22359 125.02748 26 ft 154 kts 183°
2026-04-17 07:18 11.21248 125.02673 589 ft 160 kts 183°
2026-04-17 07:19 11.20145 125.02620 1248 ft 158 kts 176°
2026-04-17 07:19 11.19168 125.03074 1823 ft 157 kts 131°
2026-04-17 07:19 11.18689 125.04058 2306 ft 156 kts 96°
2026-04-17 07:19 11.18840 125.05116 2759 ft 154 kts 60°
2026-04-17 07:20 11.19537 125.05921 3160 ft 157 kts 36°
2026-04-17 07:20 11.20469 125.06642 3318 ft 178 kts 36°
2026-04-17 07:20 11.21515 125.07443 3449 ft 197 kts 36°
2026-04-17 07:20 11.22667 125.08325 3556 ft 218 kts 36°
2026-04-17 07:21 11.23917 125.09288 3907 ft 229 kts 36°
2026-04-17 07:21 11.25198 125.10277 4465 ft 232 kts 36°
2026-04-17 07:21 11.26491 125.11276 5026 ft 233 kts 36°
2026-04-17 07:21 11.27780 125.12267 5546 ft 235 kts 34°
2026-04-17 07:22 11.29221 125.13065 6093 ft 237 kts 20°
2026-04-17 07:22 11.30817 125.13505 6632 ft 239 kts
2026-04-17 07:22 11.32480 125.13633 7179 ft 241 kts
2026-04-17 07:22 11.34160 125.13742 7725 ft 243 kts
2026-04-17 07:23 11.35854 125.13853 8232 ft 245 kts
2026-04-17 07:23 11.37549 125.13956 8756 ft 248 kts
2026-04-17 07:23 11.39276 125.13772 9254 ft 252 kts 348°
2026-04-17 07:23 11.40931 125.13138 9766 ft 257 kts 333°
2026-04-17 07:24 11.42400 125.12079 10194 ft 261 kts 320°
2026-04-17 07:24 11.43769 125.10849 10634 ft 262 kts 320°
2026-04-17 07:24 11.45143 125.09619 11077 ft 264 kts 320°
2026-04-17 07:24 11.46516 125.08395 11493 ft 266 kts 320°
2026-04-17 07:25 11.47914 125.07150 11923 ft 267 kts 320°
2026-04-17 07:25 11.49326 125.05893 12339 ft 269 kts 320°
2026-04-17 07:25 11.50742 125.04634 12760 ft 271 kts 319°
2026-04-17 07:25 11.52164 125.03358 13176 ft 272 kts 319°
2026-04-17 07:26 11.53581 125.02072 13580 ft 273 kts 318°
2026-04-17 07:26 11.55002 125.00777 13941 ft 275 kts 318°
2026-04-17 07:26 11.56413 124.99490 14283 ft 276 kts 319°
2026-04-17 07:26 11.57849 124.98182 14630 ft 277 kts 319°
2026-04-17 07:27 11.59292 124.96867 14973 ft 278 kts 319°
2026-04-17 07:27 11.60737 124.95551 15311 ft 279 kts 319°
2026-04-17 07:27 11.62191 124.94228 15661 ft 280 kts 319°
2026-04-17 07:27 11.63648 124.92904 15992 ft 281 kts 319°
2026-04-17 07:28 11.65110 124.91575 16319 ft 282 kts 319°
2026-04-17 07:28 11.66579 124.90240 16643 ft 283 kts 319°
2026-04-17 07:28 11.68037 124.88915 16954 ft 284 kts 319°
2026-04-17 07:28 11.69521 124.87566 17277 ft 285 kts 319°
2026-04-17 07:29 11.71009 124.86213 17634 ft 288 kts 319°
2026-04-17 07:29 11.72513 124.84843 18240 ft 290 kts 319°
2026-04-17 07:29 11.74024 124.83465 18750 ft 292 kts 319°
2026-04-17 07:29 11.75547 124.82079 19250 ft 294 kts 319°
2026-04-17 07:30 11.77066 124.80697 19744 ft 297 kts 319°
2026-04-17 07:30 11.78618 124.79282 20231 ft 300 kts 319°
2026-04-17 07:30 11.80180 124.77854 20723 ft 303 kts 320°
2026-04-17 07:30 11.81760 124.76412 21206 ft 306 kts 320°
2026-04-17 07:31 11.83359 124.74956 21699 ft 309 kts 320°
2026-04-17 07:31 11.84975 124.73484 22165 ft 313 kts 320°
2026-04-17 07:31 11.86611 124.71994 22647 ft 316 kts 320°
2026-04-17 07:31 11.88241 124.70509 23104 ft 319 kts 320°
2026-04-17 07:32 11.89910 124.68985 23556 ft 322 kts 320°
2026-04-17 07:32 11.91591 124.67450 23933 ft 325 kts 319°
2026-04-17 07:32 11.93293 124.65896 24313 ft 328 kts 319°
2026-04-17 07:32 11.95006 124.64334 24706 ft 331 kts 319°
2026-04-17 07:33 11.96731 124.62758 25084 ft 334 kts 319°
2026-04-17 07:33 11.98453 124.61186 25458 ft 337 kts 319°
2026-04-17 07:33 12.00208 124.59587 25841 ft 339 kts 319°
2026-04-17 07:33 12.01979 124.57975 26198 ft 342 kts 319°
2026-04-17 07:34 12.03770 124.56343 26572 ft 345 kts 319°
2026-04-17 07:34 12.05571 124.54697 26939 ft 348 kts 319°
2026-04-17 07:34 12.07383 124.53035 27294 ft 351 kts 319°
2026-04-17 07:34 12.09186 124.51384 27658 ft 354 kts 319°
2026-04-17 07:35 12.11031 124.49698 28038 ft 356 kts 319°
2026-04-17 07:35 12.12891 124.48000 28397 ft 360 kts 319°
2026-04-17 07:35 12.14768 124.46288 28759 ft 362 kts 318°
2026-04-17 07:35 12.16660 124.44560 29138 ft 365 kts 318°
2026-04-17 07:36 12.18563 124.42822 29488 ft 368 kts 318°
2026-04-17 07:36 12.20452 124.41095 29840 ft 370 kts 318°
2026-04-17 07:36 12.22380 124.39331 30149 ft 373 kts 318°
2026-04-17 07:36 12.24326 124.37552 30435 ft 376 kts 318°
2026-04-17 07:37 12.26288 124.35756 30722 ft 379 kts 318°
2026-04-17 07:37 12.28260 124.33946 31009 ft 381 kts 318°
2026-04-17 07:37 12.30242 124.32126 31313 ft 384 kts 318°
2026-04-17 07:37 12.32240 124.30295 31584 ft 387 kts 318°
2026-04-17 07:38 12.34231 124.28473 31868 ft 390 kts 318°
2026-04-17 07:38 12.36258 124.26616 32150 ft 392 kts 318°
2026-04-17 07:38 12.38329 124.24771 32455 ft 394 kts 320°
2026-04-17 07:38 12.40486 124.23006 32733 ft 397 kts 322°
2026-04-17 07:39 12.42697 124.21297 33012 ft 400 kts 323°
2026-04-17 07:39 12.44944 124.19600 33300 ft 402 kts 323°
2026-04-17 07:39 12.47204 124.17898 33601 ft 404 kts 323°
2026-04-17 07:39 12.49442 124.16197 33867 ft 406 kts 323°
2026-04-17 07:40 12.51710 124.14452 34097 ft 408 kts 323°
2026-04-17 07:40 12.53981 124.12681 34328 ft 410 kts 322°
2026-04-17 07:40 12.56255 124.10893 34563 ft 412 kts 322°
2026-04-17 07:40 12.58509 124.09118 34789 ft 414 kts 322°
2026-04-17 07:41 12.60803 124.07314 34997 ft 416 kts 322°
2026-04-17 07:41 12.63110 124.05502 35220 ft 418 kts 322°
2026-04-17 07:41 12.65429 124.03686 35435 ft 419 kts 322°
2026-04-17 07:41 12.67758 124.01869 35659 ft 421 kts 323°
2026-04-17 07:42 12.70094 124.00048 35839 ft 424 kts 323°
2026-04-17 07:42 12.72428 123.98225 35890 ft 430 kts 322°
2026-04-17 07:42 12.77262 123.94438 35898 ft 445 kts 322°
2026-04-17 07:43 12.82204 123.90566 35893 ft 458 kts 322°
2026-04-17 07:43 12.87332 123.86542 35895 ft 466 kts 322°
2026-04-17 07:44 12.92461 123.82521 35894 ft 467 kts 322°
2026-04-17 07:44 12.97636 123.78467 35892 ft 467 kts 322°
2026-04-17 07:45 13.02806 123.74411 35896 ft 467 kts 322°
2026-04-17 07:45 13.07934 123.70375 35891 ft 467 kts 322°
2026-04-17 07:46 13.13087 123.66288 35891 ft 467 kts 321°
2026-04-17 07:46 13.18079 123.62014 35898 ft 467 kts 319°
2026-04-17 07:47 13.22958 123.57673 35896 ft 466 kts 319°
2026-04-17 07:47 13.27885 123.53330 35896 ft 466 kts 320°
2026-04-17 07:48 13.32844 123.49021 35896 ft 466 kts 320°
2026-04-17 07:48 13.37784 123.44747 35894 ft 466 kts 320°
2026-04-17 07:49 13.42743 123.40444 35892 ft 466 kts 320°
2026-04-17 07:49 13.47698 123.36126 35893 ft 466 kts 320°
2026-04-17 07:50 13.52614 123.31839 35890 ft 466 kts 320°
2026-04-17 07:50 13.57381 123.27304 35892 ft 465 kts 309°
2026-04-17 07:51 13.60736 123.21692 35887 ft 464 kts 296°
2026-04-17 07:51 13.63586 123.15719 35886 ft 465 kts 296°
2026-04-17 07:52 13.66443 123.09751 35885 ft 465 kts 296°
2026-04-17 07:52 13.69282 123.03802 35885 ft 465 kts 296°
2026-04-17 07:53 13.72123 122.97824 35887 ft 465 kts 296°
2026-04-17 07:53 13.74973 122.91849 35890 ft 464 kts 296°
2026-04-17 07:54 13.77805 122.85919 35897 ft 464 kts 296°
2026-04-17 07:54 13.80647 122.79943 35894 ft 464 kts 296°
2026-04-17 07:55 13.83484 122.73968 35897 ft 464 kts 296°
2026-04-17 07:55 13.86299 122.68045 35898 ft 463 kts 296°
2026-04-17 07:56 13.89131 122.62081 35900 ft 462 kts 296°
2026-04-17 07:56 13.91951 122.56122 35898 ft 462 kts 296°
2026-04-17 07:57 13.94753 122.50206 35899 ft 461 kts 296°
2026-04-17 07:57 13.97569 122.44260 35887 ft 461 kts 296°
2026-04-17 07:58 13.98507 122.42280 35730 ft 461 kts 296°
2026-04-17 07:58 14.00368 122.38349 35418 ft 460 kts 295°
2026-04-17 07:58 14.01301 122.36374 35258 ft 459 kts 295°
2026-04-17 07:58 14.02701 122.33404 35033 ft 459 kts 295°
2026-04-17 07:59 14.04553 122.29479 34726 ft 459 kts 295°
2026-04-17 07:59 14.05498 122.27480 34574 ft 459 kts 295°
2026-04-17 07:59 14.06897 122.24525 34345 ft 459 kts 295°
2026-04-17 07:59 14.08279 122.21604 34126 ft 459 kts 295°
2026-04-17 08:00 14.09679 122.18642 33900 ft 459 kts 295°
2026-04-17 08:00 14.11082 122.15676 33646 ft 460 kts 295°
2026-04-17 08:00 14.12487 122.12702 33388 ft 460 kts 295°
2026-04-17 08:00 14.13886 122.09730 33133 ft 461 kts 295°
2026-04-17 08:01 14.15285 122.06754 32890 ft 462 kts 295°
2026-04-17 08:01 14.16672 122.03800 32638 ft 463 kts 295°
2026-04-17 08:01 14.18076 122.00810 32036 ft 465 kts 295°
2026-04-17 08:01 14.19503 121.97770 31157 ft 471 kts 295°
2026-04-17 08:02 14.20968 121.94788 30984 ft 458 kts 300°
2026-04-17 08:02 14.22823 121.92173 30865 ft 446 kts 311°
2026-04-17 08:02 14.25077 121.90037 30753 ft 434 kts 322°
2026-04-17 08:02 14.27469 121.88186 30556 ft 425 kts 322°
2026-04-17 08:03 14.29794 121.86386 30212 ft 420 kts 322°
2026-04-17 08:03 14.32131 121.84576 29786 ft 417 kts 322°
2026-04-17 08:03 14.34443 121.82784 29310 ft 414 kts 322°
2026-04-17 08:03 14.36723 121.81016 28848 ft 412 kts 322°
2026-04-17 08:04 14.38999 121.79250 28398 ft 409 kts 322°
2026-04-17 08:04 14.41267 121.77490 27950 ft 406 kts 322°
2026-04-17 08:04 14.43526 121.75733 27509 ft 403 kts 323°
2026-04-17 08:04 14.45762 121.73993 27083 ft 400 kts 323°
2026-04-17 08:05 14.47980 121.72268 26651 ft 398 kts 323°
2026-04-17 08:05 14.50162 121.70571 26232 ft 395 kts 323°
2026-04-17 08:05 14.52324 121.68833 25822 ft 393 kts 317°
2026-04-17 08:05 14.53962 121.66630 25215 ft 386 kts 295°
2026-04-17 08:06 14.54662 121.63972 24520 ft 382 kts 272°
2026-04-17 08:06 14.54348 121.61274 23821 ft 379 kts 250°
2026-04-17 08:06 14.53201 121.58847 23034 ft 377 kts 239°
2026-04-17 08:06 14.51892 121.56500 22228 ft 376 kts 239°
2026-04-17 08:07 14.50587 121.54171 21493 ft 373 kts 239°
2026-04-17 08:07 14.49302 121.51884 20808 ft 370 kts 240°
2026-04-17 08:07 14.48017 121.49586 20136 ft 367 kts 240°
2026-04-17 08:07 14.46745 121.47311 19491 ft 363 kts 240°
2026-04-17 08:08 14.45490 121.45065 18859 ft 360 kts 241°
2026-04-17 08:08 14.44247 121.42836 18250 ft 357 kts 241°
2026-04-17 08:08 14.43028 121.40653 17580 ft 353 kts 241°
2026-04-17 08:08 14.41811 121.38461 17032 ft 347 kts 244°
2026-04-17 08:09 14.41122 121.36178 16833 ft 325 kts 270°
2026-04-17 08:09 14.41462 121.33957 16419 ft 310 kts 297°
2026-04-17 08:09 14.42697 121.32206 15899 ft 299 kts 324°
2026-04-17 08:09 14.44435 121.31071 15337 ft 295 kts 333°
2026-04-17 08:10 14.46223 121.30029 14793 ft 294 kts 334°
2026-04-17 08:10 14.48146 121.29344 14099 ft 293 kts
2026-04-17 08:10 14.50071 121.29817 13661 ft 283 kts 32°
2026-04-17 08:10 14.51420 121.31231 13178 ft 282 kts 57°
2026-04-17 08:11 14.52446 121.32981 12761 ft 286 kts 59°
2026-04-17 08:11 14.53419 121.34781 12353 ft 288 kts 60°
2026-04-17 08:11 14.54377 121.36594 12034 ft 288 kts 60°
2026-04-17 08:11 14.55347 121.38414 11665 ft 289 kts 60°
2026-04-17 08:12 14.56319 121.40207 11252 ft 290 kts 60°
2026-04-17 08:12 14.57327 121.41991 10850 ft 281 kts 54°
2026-04-17 08:12 14.58774 121.43259 10456 ft 273 kts 22°
2026-04-17 08:12 14.60616 121.43451 10063 ft 268 kts 347°
2026-04-17 08:13 14.62350 121.42739 9662 ft 271 kts 335°
2026-04-17 08:13 14.64032 121.41828 9239 ft 274 kts 332°
2026-04-17 08:13 14.65704 121.40863 8829 ft 275 kts 331°
2026-04-17 08:14 14.68945 121.38777 8021 ft 277 kts 311°
2026-04-17 08:14 14.69762 121.37027 7620 ft 269 kts 276°
2026-04-17 08:14 14.69467 121.35193 7237 ft 257 kts 241°
2026-04-17 08:14 14.68508 121.33649 6895 ft 255 kts 236°
2026-04-17 08:15 14.67559 121.32085 6371 ft 263 kts 239°
2026-04-17 08:15 14.66638 121.30427 5828 ft 265 kts 240°
2026-04-17 08:15 14.65755 121.28819 5457 ft 255 kts 240°
2026-04-17 08:15 14.64895 121.27263 5131 ft 244 kts 240°
2026-04-17 08:16 14.64066 121.25766 4837 ft 237 kts 240°
2026-04-17 08:16 14.63246 121.24286 4521 ft 236 kts 240°
2026-04-17 08:16 14.62440 121.22829 4225 ft 236 kts 240°
2026-04-17 08:16 14.61623 121.21355 3919 ft 236 kts 239°
2026-04-17 08:17 14.60817 121.19900 3625 ft 230 kts 239°
2026-04-17 08:17 14.60030 121.18479 3329 ft 225 kts 238°
2026-04-17 08:17 14.59259 121.17088 3050 ft 221 kts 238°
2026-04-17 08:17 14.58504 121.15726 2764 ft 214 kts 238°
2026-04-17 08:18 14.57786 121.14430 2517 ft 201 kts 239°
2026-04-17 08:18 14.57113 121.13217 2260 ft 190 kts 238°
2026-04-17 08:18 14.56485 121.12084 2043 ft 173 kts 238°
2026-04-17 08:18 14.55914 121.11055 1805 ft 161 kts 239°
2026-04-17 08:19 14.55376 121.10085 1622 ft 152 kts 239°
2026-04-17 08:19 14.54860 121.09155 1414 ft 147 kts 238°
2026-04-17 08:19 14.54350 121.08237 1236 ft 146 kts 238°
2026-04-17 08:19 14.53844 121.07326 1052 ft 145 kts 238°
2026-04-17 08:20 14.53339 121.06415 872 ft 145 kts 238°
2026-04-17 08:20 14.52832 121.05503 689 ft 146 kts 237°
2026-04-17 08:20 14.52335 121.04608 485 ft 145 kts 238°
2026-04-17 08:20 14.51832 121.03708 313 ft 147 kts 237°
2026-04-17 08:21 14.51347 121.02801 104 ft 142 kts 237°
2026-04-17 08:21 14.50816 121.01849 429 ft 164 kts 238°
2026-04-17 08:21 14.50247 121.00848 1335 ft 162 kts 238°
2026-04-17 08:21 14.49683 120.99862 2193 ft 157 kts 239°
2026-04-17 08:22 14.49134 120.98890 2825 ft 156 kts 239°
2026-04-17 08:22 14.48595 120.97921 3408 ft 159 kts 238°
2026-04-17 08:22 14.48012 120.96859 3647 ft 180 kts 239°
2026-04-17 08:22 14.47302 120.95695 3830 ft 203 kts 225°
2026-04-17 08:23 14.46033 120.94933 3983 ft 222 kts 191°
2026-04-17 08:23 14.44514 120.95020 4006 ft 224 kts 158°
2026-04-17 08:23 14.43128 120.95760 4006 ft 225 kts 148°
2026-04-17 08:23 14.41797 120.96622 4010 ft 226 kts 147°
2026-04-17 08:24 14.40471 120.97502 4009 ft 226 kts 147°
2026-04-17 08:24 14.39230 120.98486 4009 ft 226 kts 128°
2026-04-17 08:24 14.38614 120.99958 4011 ft 227 kts 96°
2026-04-17 08:24 14.38866 121.01557 4012 ft 229 kts 66°
2026-04-17 08:25 14.39600 121.03021 4010 ft 230 kts 60°
2026-04-17 08:25 14.40403 121.04448 4007 ft 230 kts 60°
2026-04-17 08:25 14.41208 121.05853 4009 ft 230 kts 60°
2026-04-17 08:25 14.42026 121.07277 4011 ft 230 kts 60°
2026-04-17 08:26 14.42845 121.08698 4012 ft 230 kts 60°
2026-04-17 08:26 14.43668 121.10124 4009 ft 231 kts 60°
2026-04-17 08:26 14.44488 121.11547 4010 ft 230 kts 60°
2026-04-17 08:26 14.45310 121.12969 4010 ft 230 kts 60°
2026-04-17 08:27 14.46130 121.14388 4010 ft 230 kts 60°
2026-04-17 08:27 14.46940 121.15790 4010 ft 230 kts 60°
2026-04-17 08:27 14.47760 121.17213 4010 ft 230 kts 60°
2026-04-17 08:27 14.48576 121.18634 4011 ft 227 kts 60°
2026-04-17 08:28 14.49364 121.20002 4003 ft 215 kts 60°
2026-04-17 08:28 14.50115 121.21306 4007 ft 208 kts 60°
2026-04-17 08:28 14.50848 121.22581 4011 ft 206 kts 60°
2026-04-17 08:28 14.51609 121.23806 4010 ft 206 kts 49°
2026-04-17 08:29 14.52785 121.24640 3827 ft 207 kts 17°
2026-04-17 08:29 14.54203 121.24709 3750 ft 206 kts 346°
2026-04-17 08:29 14.55527 121.24127 3714 ft 209 kts 335°
2026-04-17 08:29 14.56829 121.23461 3635 ft 208 kts 334°
2026-04-17 08:30 14.58122 121.22798 3554 ft 204 kts 334°
2026-04-17 08:30 14.59339 121.22160 3499 ft 192 kts 329°
2026-04-17 08:30 14.60231 121.21214 3494 ft 179 kts 297°
2026-04-17 08:30 14.60526 121.20031 3477 ft 167 kts 268°
2026-04-17 08:31 14.60258 121.18889 3355 ft 163 kts 237°
2026-04-17 08:31 14.59699 121.17879 3177 ft 160 kts 239°
2026-04-17 08:31 14.59145 121.16881 2999 ft 160 kts 237°
2026-04-17 08:31 14.58606 121.15909 2820 ft 154 kts 237°
2026-04-17 08:32 14.58080 121.14960 2622 ft 151 kts 237°
2026-04-17 08:32 14.57558 121.14020 2421 ft 151 kts 238°
2026-04-17 08:32 14.57039 121.13085 2229 ft 149 kts 237°
2026-04-17 08:32 14.56521 121.12151 2037 ft 149 kts 239°
2026-04-17 08:33 14.56007 121.11224 1834 ft 149 kts 238°
2026-04-17 08:33 14.55495 121.10301 1661 ft 147 kts 238°
2026-04-17 08:33 14.54988 121.09387 1463 ft 146 kts 237°
2026-04-17 08:33 14.54483 121.08478 1280 ft 147 kts 237°
2026-04-17 08:34 14.53984 121.07579 1102 ft 146 kts 238°
2026-04-17 08:34 14.53480 121.06670 925 ft 146 kts 238°
2026-04-17 08:34 14.52975 121.05761 740 ft 146 kts 237°
2026-04-17 08:34 14.52470 121.04852 551 ft 146 kts 238°
2026-04-17 08:35 14.51972 121.03954 355 ft 145 kts 238°
2026-04-17 08:35 14.51470 121.03049 155 ft 144 kts 239°
2026-04-17 08:35 14.50995 121.02184 67 ft 124 kts 239°
2026-04-17 08:35 14.50649 121.01565 68 ft 74 kts 240°
2026-04-17 08:36 14.50461 121.01225 67 ft 48 kts 240°
2026-04-17 08:36 14.50310 121.00931 66 ft 43 kts 249°
2026-04-17 08:36 14.50286 121.00742 68 ft 15 kts 297°
2026-04-17 08:36 14.50357 121.00758 62 ft 13 kts 60°
2026-04-17 08:37 14.50407 121.00848 67 ft 16 kts 59°
2026-04-17 08:37 14.50468 121.00958 69 ft 17 kts 60°
2026-04-17 08:37 14.50514 121.01043 62 ft 15 kts 61°
2026-04-17 08:37 14.50560 121.01123 64 ft 13 kts 59°
2026-04-17 08:38 14.50605 121.01205 67 ft 13 kts 60°
2026-04-17 08:38 14.50653 121.01292 66 ft 8 kts 60°
2026-04-17 08:38 14.50709 121.01315 63 ft 10 kts 352°
2026-04-17 08:38 14.50755 121.01327 68 ft 6 kts 43°
2026-04-17 08:39 14.50765 121.01343 61 ft 0 kts 60°
2026-04-17 08:41 14.50775 121.01359 62 ft 8 kts 60°
2026-04-17 08:41 14.50790 121.01380 66 ft 7 kts 351°
2026-04-17 08:42 14.50833 121.01356 66 ft 8 kts 328°
2026-04-17 08:42 14.50865 121.01335 65 ft 0 kts 330°